Location: Bratislava
(48.1500°N, 17.1170°E)
Time: 11:11:44
(UTC+02:00)

Envisat - Visible Passes

Search period start: 25 May 2018 00:00
Search period end: 04 June 2018 00:00
Orbit: 764 x 766 km, 98.2° (Epoch: 24 May)

Date Brightness Start Highest point End Pass type
(mag) Time Alt. Az. Time Alt. Az. Time Alt. Az.
25 May 5.9 21:49:39 10° WSW 21:51:15 11° W 21:52:53 10° WNW visible
26 May 5.3 21:09:59 10° SW 21:14:03 24° W 21:18:08 10° NW visible
28 May 5.7 21:37:13 10° WSW 21:39:57 14° W 21:42:40 10° NW visible
31 May 5.6 21:25:14 10° SW 21:28:38 18° W 21:32:04 10° NW visible
02 Jun 6.1 21:53:53 10° W 21:54:36 10° W 21:55:19 10° WNW visible
